sat.trackr.live / text

‹ back to catalog

STARLINK-3335

NORAD 50806 · 2022-001D

PAYLOAD ACTIVE UNKNOWN

§ Identity

Operator
Country
US
Launch date
2022-01-06
Launch site
AFETR
Launch vehicle
Mass (kg)
RCS (m²)

Purposes: comms

External: N2YO · Heavens-Above · Gunter

§ Orbital elements

Epoch: 2026-05-25T02:56:34.774944Z

Period
95.44 min
Inclination
53.2127°
Eccentricity
0.0001362
Mean motion
15.08824184 rev/d
Perigee alt
538.8 km
Apogee alt
540.7 km
Semi-major
6,917.9 km
B*
-7.8105e-5
RAAN
176.0015°
Arg perigee
84.2455°
Mean anomaly
275.8692°
Rev number
24,208

§ Raw data

STARLINK-33351 50806U 22001D   26145.12262471 -.00001530  00000+0 -78105-4 0  99922 50806  53.2127 176.0015 0001362  84.2455 275.8692 15.08824184242087

JSON: /api/v1/satellites/50806 · /tle

For live sub-satellite position, see the globe view (requires WebGL).

§ Visibility from observer

Set your observer location to see the next 7 days of passes ≥ 10°. The values pass through the URL so the page stays shareable.

No JS? Fill the form by hand. The geolocation button needs JavaScript.